Header for Extended Forecast Station List Page

Search by: ID | Name | Date | Parm | Value | Avg | % Avg
Sort by: ID | Name | Date | Parm | Value | Avg | % Avg

Enter search or view all records.

Click on id for station plot
#IDNameDateParmValueAvg% Avg
0HWRI1BIG LOST-AT HOWELL RANCH NEAR CHILLY11-13-2018DISCHARGE (KAF)2119108
1MACI1BIG LOST-MACKAY RESERVOIR NEAR MACKAY11-13-2018INFLOW (KAF)374872
2HALI1BIG WOOD-AT HAILEY11-13-2018DISCHARGE (KAF)343793
3MAGI1BIG WOOD-MAGIC DAM11-13-2018INFLOW (KAF)223074
4BITM8BITTERROOT-NEAR MISSOULA11-13-2018DISCHARGE (KAF)19022087
5BONM8BLACKFOOT-NEAR BONNER11-13-2018DISCHARGE (KAF)186131141
6BIGI1BOISE-AT GLENWOOD BRIDGE11-13-2018DISCHARGE (KAF)10139257
7LUCI1BOISE-LUCKY PEAK DAM11-13-2018INFLOW (KAF)99MM
8PARI1BOISE-NEAR PARMA11-13-2018DISCHARGE (KAF)230214107
9HOTI1BRUNEAU-NEAR HOT SPRINGS11-13-2018DISCHARGE (KAF)173254
10BULO3BULLY CREEK-BULLY CREEK DAM11-13-2018INFLOW (KAF)3465
11BUDW1BUMPING-BUMPING LAKE DAM11-13-2018INFLOW (KAF)123832
12CHDW1CHELAN-LAKE CHELAN DAM11-13-2018INFLOW (KAF)14916192
13ABOM8CLARK FORK-ABOVE MISSOULA11-13-2018DISCHARGE (KAF)411333123
14DLGM8CLARK FORK-AT DEER LODGE11-13-2018DISCHARGE (KAF)7361118
15SRGM8CLARK FORK-AT ST REGIS11-13-2018DISCHARGE (KAF)758744102
16BELM8CLARK FORK-BELOW MISSOULA11-13-2018DISCHARGE (KAF)602561107
17CABI1CLARK FORK-CABINET GORGE DAM11-13-2018INFLOW (KAF)3165379783
18NOXM8CLARK FORK-NOXON RAPIDS DAM11-13-2018INFLOW (KAF)2875362779
19DRMM8CLARK FORK-NR DRUMMOND11-13-2018DISCHARGE (KAF)155MM
20CLUW1CLE ELUM-CLE ELUM LAKE11-13-2018INFLOW (KAF)6010657
21ORFI1CLEARWATER-AT OROFINO11-13-2018DISCHARGE (KAF)45980257
22SPDI1CLEARWATER-AT SPALDING11-13-2018DISCHARGE (KAF)1105188059
23COEI1COEUR D ALENE-COEUR D ALENE LAKE11-13-2018INFLOW (KAF)33190736
24CIBW1COLUMBIA-AT INTL BOUNDARY11-13-2018DISCHARGE (KAF)18071MM
25BONO3COLUMBIA-BONNEVILLE DAM11-13-2018INFLOW (KAF)304023926577
26CHJW1COLUMBIA-CHIEF JOSEPH DAM11-13-2018INFLOW (KAF)204742235492
27GCDW1COLUMBIA-GRAND COULEE DAM11-13-2018INFLOW (KAF)1887517162110
28JDAO3COLUMBIA-JOHN DAY DAM11-13-2018INFLOW (KAF)290613256289
29MCDW1COLUMBIA-MCNARY DAM11-13-2018INFLOW (KAF)277383124289
30PRWW1COLUMBIA-PRIEST RAPIDS DAM11-13-2018INFLOW (KAF)2165020709105
31RRHW1COLUMBIA-ROCKY REACH DAM11-13-2018INFLOW (KAF)214242332292
32TDAO3COLUMBIA-THE DALLES DAM11-13-2018INFLOW (KAF)296713685881
33WANW1COLUMBIA-WANAPUM DAM11-13-2018INFLOW (KAF)2165020411106
34WELW1COLUMBIA-WELLS DAM11-13-2018INFLOW (KAF)208232278791
35DEDI1DEADWOOD-NEAR LOWMAN11-13-2018INFLOW (KAF)151978
36MODO3DESCHUTES-AT MOODY NR BIGGS11-13-2018DISCHARGE (KAF)1351148391
37ARDW1ENTIAT-NEAR ARDENVOIR11-13-2018DISCHARGE (KAF)192285
38CHEI1FALL RIVER-NEAR CHESTER11-13-2018DISCHARGE (KAF)10911198
39CFMM8FLATHEAD-AT COLUMBIA FALLS11-13-2018DISCHARGE (KAF)879115076
40KERM8FLATHEAD-KERR DAM11-13-2018INFLOW (KAF)1012149568
41TRYO3GRANDE RONDE-TROY11-13-2018DISCHARGE (KAF)20938654
42REXI1HENRYS FORK-AT REXBURG11-13-2018DISCHARGE (KAF)456427107
43ANTI1HENRYS FORK-AT ST. ANTHONY11-13-2018DISCHARGE (KAF)349341102
44IPDI1HENRYS FORK-ISLAND PARK DAM11-13-2018INFLOW (KAF)7811269
45HODO3HOOD-NEAR TUCKER BRIDGE11-13-2018DISCHARGE (KAF)22226384
46SERO3JOHN DAY-AT SERVICE CK11-13-2018DISCHARGE (KAF)15428754
47KADW1KACHESS-KACHESS DAM11-13-2018INFLOW (KAF)294860
48LAUW1KETTLE-AT LAURIER11-13-2018DISCHARGE (KAF)10212184
49PITW1KLICKITAT-NEAR PITT11-13-2018DISCHARGE (KAF)28433884
50BFEI1KOOTENAI-AT BONNERS FERRY11-13-2018STAGE (FT)MMM
51LEOI1KOOTENAI-AT LEONIA11-13-2018DISCHARGE (KAF)25221357186
52LYDM8KOOTENAI-LIBBY DAM11-13-2018INFLOW (KAF)75380993
53LWRI1LITTLE WOOD-LITTLE WOOD DAM11-13-2018INFLOW (KAF)111571
54BERO3MALHEUR-AGENCY VALLEY DAM11-13-2018INFLOW (KAF)112250
55VALO3MALHEUR-NEAR VALE11-13-2018DISCHARGE (KAF)213561
56WRMO3MALHEUR-WARM SPRINGS DAM11-13-2018INFLOW (KAF)123534
57MYKO3MCKAY CREEK-NEAR PILOT ROCK11-13-2018DISCHARGE (KAF)2525101
58PATW1METHOW-NEAR PATEROS11-13-2018DISCHARGE (KAF)829686
59WGCM8MF FLATHEAD-NEAR WEST GLACIER11-13-2018DISCHARGE (KAF)10615469
60CLFW1NACHES-NEAR CLIFFDEL11-13-2018DISCHARGE (KAF)5211644
61NACW1NACHES-NEAR NACHES11-13-2018DISCHARGE (KAF)449646
62DWRI1NF CLEARWATER-DWORSHAK DAM11-13-2018INFLOW (KAF)28661846
63FCFM8NF FLATHEAD-NEAR COLUMBIA FALLS11-13-2018DISCHARGE (KAF)15817590
64MONO3NF JOHN DAY-AT MONUMENT11-13-2018DISCHARGE (KAF)8216649
65CSDI1NF PAYETTE-CASCADE DAM11-13-2018INFLOW (KAF)639864
66TONW1OKANOGAN-NEAR TONASKET11-13-2018DISCHARGE (KAF)25828491
67OWYO3OWYHEE-OWYHEE DAM11-13-2018INFLOW (KAF)6310957
68EMMI1PAYETTE-NEAR EMMETT11-13-2018DISCHARGE (KAF)27838472
69ALFW1PEND OREILLE-ALBENI FALLS DAM11-13-2018INFLOW (KAF)3205444472
70HOPI1PEND OREILLE-PEND OREILLE LAKE NR HOPE11-13-2018LAKE ELEVATION (FT)MMM
71PIHI1PORTNEUF-AT POCATELLO11-13-2018DISCHARGE (KAF)556881
72PRTI1PRIEST-NEAR PRIEST RIVER11-13-2018DISCHARGE (KAF)6621131
73RCCM8ROCK CREEK-NEAR CLINTON11-13-2018DISCHARGE (KAF)5546119
74WHBI1SALMON-AT WHITEBIRD11-13-2018DISCHARGE (KAF)975105892
75ARAI1SF BOISE-ANDERSON RANCH DAM11-13-2018INFLOW (KAF)637980
76HHWM8SF FLATHEAD-HUNGRY HORSE DAM11-13-2018INFLOW (KAF)22423894
77PLDI1SF SNAKE-PALISADES DAM11-13-2018INFLOW (KAF)58659898
78SIFI1SNAKE-AB EAGLE ROCK NR IDAHO FALLS11-13-2018DISCHARGE (KAF)64380780
79AFRI1SNAKE-AMERICAN FALLS RESERVOIR11-13-2018INFLOW (KAF)1207149281
80SNAI1SNAKE-AT BLACKFOOT11-13-2018DISCHARGE (KAF)55375274
81MILI1SNAKE-AT MILNER11-13-2018DISCHARGE (KAF)446527
82WEII1SNAKE-AT WEISER11-13-2018DISCHARGE (KAF)2629382269
83SWAI1SNAKE-BELOW SWAN FALLS11-13-2018DISCHARGE (KAF)1780262068
84BRNI1SNAKE-BROWNLEE DAM11-13-2018INFLOW (KAF)2816396571
85IHDW1SNAKE-ICE HARBOR DAM11-13-2018INFLOW (KAF)5460829366
86JLKW4SNAKE-JACKSON LAKE AT DAM11-13-2018INFLOW (KAF)9911586
87LGSW1SNAKE-LITTLE GOOSE DAM11-13-2018INFLOW (KAF)5280823164
88LGDW1SNAKE-LOWER GRANITE DAM11-13-2018INFLOW (KAF)5280816365
89LMNW1SNAKE-LOWER MONUMENTAL DAM11-13-2018INFLOW (KAF)5460837965
90ALPW4SNAKE-NEAR ALPINE11-13-2018DISCHARGE (KAF)374371101
91ANAW1SNAKE-NEAR ANATONE11-13-2018DISCHARGE (KAF)4174607269
92BFTI1SNAKE-NEAR BLACKFOOT11-13-2018DISCHARGE (KAF)56179571
93HEII1SNAKE-NEAR HEISE11-13-2018DISCHARGE (KAF)33455960
94JKSW4SNAKE-NEAR JACKSON11-13-2018DISCHARGE (KAF)321299107
95SHYI1SNAKE-NEAR SHELLEY11-13-2018DISCHARGE (KAF)62681677
96LLKW1SPOKANE-AT LONGLAKE11-13-2018INFLOW (KAF)608141243
97SPOW1SPOKANE-AT SPOKANE11-13-2018DISCHARGE (KAF)386MM
98SJMI1ST JOE-AT ST MARIES11-13-2018STAGE (FT)MMM
99SATI1ST MARIES-NEAR SANTA11-13-2018DISCHARGE (KAF)154832
100STRM8ST. REGIS-NEAR ST. REGIS11-13-2018DISCHARGE (KAF)174438
101TNAW1TEANAWAY-BELOW FORKS11-13-2018DISCHARGE (KAF)245047
102TEAI1TETON-NEAR ST. ANTHONY11-13-2018DISCHARGE (KAF)11497118
103RILW1TIETON-RIMROCK LAKE NEAR RIMROCK11-13-2018INFLOW (KAF)327145
104PDTO3UMATILLA-AT PENDLETON11-13-2018DISCHARGE (KAF)8610980
105GIBO3UMATILLA-NEAR GIBBON11-13-2018DISCHARGE (KAF)354381
106UMAO3UMATILLA-NEAR UMATILLA11-13-2018DISCHARGE (KAF)118111106
107TCHW1WALLA WALLA-NEAR TOUCHET11-13-2018DISCHARGE (KAF)10316164
108WSRI1WEISER-NEAR WEISER11-13-2018DISCHARGE (KAF)7612760
109PESW1WENATCHEE-AT PESHASTIN11-13-2018DISCHARGE (KAF)19930765
110UNDW1WHITE SALMON-NEAR UNDERWOOD11-13-2018DISCHARGE (KAF)22027680
111RIDI1WILLOW CREEK-RIRIE DAM11-13-2018INFLOW (KAF)9996
112EASW1YAKIMA-AT EASTON11-13-2018DISCHARGE (KAF)647684
113KIOW1YAKIMA-AT KIONA11-13-2018DISCHARGE (KAF)53278268
114UMTW1YAKIMA-AT UMTANUM11-13-2018DISCHARGE (KAF)22828580
115KEDW1YAKIMA-KEECHELUS LAKE11-13-2018INFLOW (KAF)305159
116PARW1YAKIMA-NEAR PARKER11-13-2018DISCHARGE (KAF)36953968